This is the latest recevied weather packets stored in our database for station/object DL1VED. If no packets are shown the sender has not sent any weather packets the latest 10 day(s).
| Time | Temp. | Humidity | Pressure | Rain* | Wind** | Luminosity | Snow |
|---|---|---|---|---|---|---|---|
| 1778170445 | 15.56° C | 59% | 1015.1 hPa | 0 mm | - | - | - |
| 1778169545 | 15° C | 60% | 1015.1 hPa | 0 mm | - | - | - |
| 1778168645 | 14.44° C | 62% | 1015.1 hPa | 0 mm | - | - | - |
| 1778167745 | 15° C | 60% | 1015.2 hPa | 0 mm | - | - | - |
| 1778166845 | 15° C | 59% | 1015.2 hPa | 0 mm | - | - | - |
| 1778165945 | 15° C | 59% | 1015.2 hPa | 0 mm | - | - | - |
| 1778165045 | 15° C | 59% | 1015.2 hPa | 0 mm | - | - | - |
| 1778164145 | 15° C | 58% | 1015.1 hPa | 0 mm | - | - | - |
| 1778163245 | 15.56° C | 59% | 1015.1 hPa | 0 mm | - | - | - |
| 1778162345 | 15.56° C | 58% | 1015.2 hPa | 0 mm | - | - | - |
| 1778161445 | 15.56° C | 58% | 1015.2 hPa | 0 mm | - | - | - |
| 1778160545 | 15° C | 59% | 1015.2 hPa | 0 mm | - | - | - |
| 1778159645 | 15° C | 62% | 1015.3 hPa | 0 mm | - | - | - |
| 1778158745 | 14.44° C | 63% | 1015.4 hPa | 0 mm | - | - | - |
| 1778157845 | 14.44° C | 65% | 1015.3 hPa | 0 mm | - | - | - |
| 1778156945 | 13.89° C | 66% | 1015.3 hPa | 0 mm | - | - | - |
| 1778156045 | 13.33° C | 68% | 1015.2 hPa | 0 mm | - | - | - |
| 1778155145 | 13.33° C | 68% | 1015.2 hPa | 0 mm | - | - | - |
| 1778154245 | 13.33° C | 66% | 1015.1 hPa | 0 mm | - | - | - |
| 1778153345 | 13.33° C | 65% | 1015 hPa | 0 mm | - | - | - |
| 1778152445 | 13.89° C | 63% | 1015 hPa | 0 mm | - | - | - |
| 1778151545 | 13.33° C | 65% | 1015 hPa | 0 mm | - | - | - |
| 1778150645 | 13.33° C | 66% | 1014.8 hPa | 0 mm | - | - | - |
| 1778149745 | 13.33° C | 65% | 1014.8 hPa | 0 mm | - | - | - |
| 1778148845 | 13.33° C | 66% | 1014.8 hPa | 0 mm | - | - | - |
* Rain latest hour (hover to see other rain measurements)
** Current wind speed in m/s (hover to see current wind gust speed)